[[{"header":{"parameterUnit":"m.s-1","parameterCategory":1,"la1":30.2991,"la2":30.254,"lo1":-89.0895,"lo2":-89.0444,"dy":0.0017,"dx":0.0017,"nx":28,"ny":28,"refTime":"2024-02-28T09:00:00:Z","depth":0,"parameterNumber":2,"parameterNumberName":"U-component_of_WINDS"},"data":[0,0,0,0,0,0,0,0,0,0,0,0,0,0,0,0,0,0,0,0,0,0,0,0,0,0,0,0,0,0,0,0,0,0,0,0,0,0,0,0,0,0,0,0,0,0,0,0,0,0,0,0,0,0,0,0,0,0,-3.758,-3.7581,0,-3.7609,-3.7609,-3.761,-3.7516,-3.7513,-3.751,-3.7508,-3.7539,-3.7542,-3.7545,0,0,0,0,0,0,0,0,0,0,0,0,0,-3.7445,-3.7448,-3.758,-3.7581,-3.7581,-3.7609,-3.7609,-3.761,-3.7516,-3.7513,-3.751,-3.7506,-3.7537,-3.7542,-3.7546,0,0,0,0,0,0,0,0,0,0,0,0,0,-3.7492,-3.7449,-3.758,-3.7538,-3.7534,-3.7609,-3.7609,-3.761,-3.7517,-3.7513,-3.7509,-3.7505,-3.7536,-3.7541,-3.7546,-3.7664,0,0,-3.7562,-3.7565,0,0,0,0,0,0,0,0,-3.749,-3.7497,-3.7544,-3.7541,-3.7537,-3.7554,-3.7573,-3.7628,-3.7518,-3.7524,-3.7507,-3.7503,-3.7547,-3.7551,-3.7566,-3.7665,-3.7667,-3.7563,-3.7566,-3.7568,-3.757,0,0,0,0,0,0,0,-3.7487,-3.7495,-3.7592,-3.7544,-3.754,-3.7518,-3.7519,-3.7583,-3.7559,-3.7523,-3.7516,-3.7521,-3.7545,-3.7561,-3.7566,-3.7667,-3.7563,-3.7567,-3.757,-3.7572,-3.7864,-3.7869,0,0,0,0,0,0,-3.7489,-3.7493,-3.7591,-3.7592,-3.7502,-3.7523,-3.7526,-3.7553,-3.7558,-3.7555,-3.7524,-3.7516,-3.7555,-3.756,-3.7567,-3.7706,-3.7568,-3.7573,-3.7576,-3.786,-3.7865,-3.787,0,0,0,0,0,0,-3.7486,-3.7498,-3.7589,-3.7541,-3.7551,-3.753,-3.7562,-3.7556,-3.7572,-3.7559,-3.7555,-3.7546,-3.7552,-3.756,-3.764,-3.7705,-3.7575,-3.758,-3.7854,-3.7862,-3.7868,-3.7984,0,0,0,0,0,0,-3.7483,-3.7498,-3.7542,-3.7543,-3.7554,-3.7663,-3.7566,-3.756,-3.7582,-3.7571,-3.7578,-3.7575,-3.7549,-3.7633,-3.7646,-3.771,-3.7584,-3.7849,-3.7858,-3.7866,-3.7974,-3.7994,-3.8011,0,0,0,0,0,-3.7478,-3.7574,-3.7545,-3.7557,-3.7609,-3.7666,-3.7673,-3.764,-3.7587,-3.7632,-3.7623,-3.7575,-3.7696,-3.7642,-3.7656,-3.7723,-3.7844,-3.7855,-3.7865,-3.7966,-3.799,-3.801,0,0,0,0,0,0,-3.7582,-3.7573,-3.7541,-3.7639,-3.7654,-3.765,-3.7706,-3.7666,-3.7697,-3.7686,-3.7645,-3.7647,-3.7736,-3.7737,-3.7677,-3.7837,-3.7761,-3.7775,-3.7833,-3.7856,-3.7874,-3.7872,-3.7588,0,0,0,0,0,-3.7616,-3.7663,-3.7653,-3.7741,-3.775,-3.7727,-3.7751,-3.7724,-3.7738,-3.7744,-3.7741,-3.7757,-3.7799,-3.7827,-3.7864,-3.7973,-3.7974,-3.8026,-3.8044,-3.8059,-3.8072,-3.813,-3.8154,-3.7905,-3.7905,-3.7904,0,0,-3.7687,-3.7688,-3.7721,-3.7762,-3.777,-3.782,-3.7733,-3.7789,-3.7827,-3.7753,-3.7829,-3.7828,-3.7843,-3.7938,-3.798,-3.7942,-3.8141,-3.8072,-3.8085,-3.8089,-3.8144,-3.8167,-3.8188,-3.7912,-3.791,-3.7909,0,0,-3.7843,-3.7848,-3.7922,-3.7933,-3.7946,-3.793,-3.7948,-3.795,-3.7947,-3.8022,-3.7968,-3.8011,-3.8084,-3.8097,-3.8113,-3.8274,-3.8231,-3.8287,-3.8383,-3.8441,-3.8461,-3.8478,-3.8536,-3.8558,-3.83,-3.83,-3.83,0,-3.793,-3.8004,-3.7966,-3.8026,-3.8046,-3.7981,-3.8056,-3.8068,-3.8094,-3.8109,-3.8066,-3.8155,-3.8161,-3.8259,-3.8298,-3.8313,-3.8333,-3.8287,-3.8461,-3.8478,-3.8493,-3.8549,-3.8571,-3.8307,-3.8306,-3.8305,-3.8305,0,-3.8111,-3.8162,-3.8221,-3.8247,-3.8273,-3.8341,-3.8314,-3.8345,-3.8316,-3.8305,-3.8383,-3.8387,-3.8424,-3.8445,-3.8418,-3.854,-3.8516,-3.8467,-3.8391,-3.8524,-3.8576,-3.8597,-3.8316,-3.8314,-3.8312,-3.831,0,0,-3.8334,-3.8337,-3.836,-3.8371,-3.8381,-3.8421,-3.8486,-3.8522,-3.855,-3.857,-3.8624,-3.8686,-3.8641,-3.866,-3.8633,-3.8683,-3.8812,-3.8628,-3.8628,-3.8663,-3.8948,-3.8986,-3.9011,-3.8783,-3.8787,-3.879,-3.8947,0,-3.8488,-3.8599,-3.8567,-3.8678,-3.8726,-3.8664,-3.8721,-3.8734,-3.8725,-3.8765,-3.8754,-3.88,-3.8736,-3.8747,-3.8794,-3.8786,-3.8869,-3.8774,-3.8834,-3.8837,-3.8834,-3.9038,-3.9078,-3.9226,-3.8967,-3.897,-3.8973,0,-3.8683,-3.871,-3.8827,-3.883,-3.8848,-3.89,-3.8931,-3.8969,-3.8982,-3.8972,-3.8993,-3.8956,-3.902,-3.8942,-3.9031,-3.8968,-3.899,-3.899,-3.8995,-3.9,-3.8914,-3.905,-3.9273,-3.9296,-3.9004,-3.9001,-3.8999,0,-3.8836,-3.8901,-3.898,-3.8991,-3.8996,-3.9034,-3.9038,-3.9046,-3.907,-3.9097,-3.9113,-3.9147,-3.9166,-3.9194,-3.9167,-3.9113,-3.9261,-3.918,-3.9255,-3.9256,-3.929,-3.9289,-3.9521,-3.9303,-3.9302,-3.9302,-3.9301,0,-3.9013,-3.9087,-3.9049,-3.9097,-3.9178,-3.914,-3.9222,-3.9219,-3.9227,-3.9274,-3.9223,-3.9268,-3.9229,-3.9272,-3.9251,-3.9328,-3.9337,-3.9332,-3.9326,-3.9337,-3.9338,-3.9352,-3.9342,-3.9308,-3.9306,-3.9305,-3.9304,0,-3.9198,-3.9175,-3.9256,-3.9254,-3.9255,-3.9315,-3.9313,-3.9358,-3.9345,-3.9406,-3.9418,-3.9398,-3.9445,-3.942,-3.9469,-3.9455,-3.9556,-3.9535,-3.9552,-3.9547,-3.9624,-3.9617,-3.9874,-3.9907,-3.9666,-3.9668,-3.967,0,-3.9313,-3.9368,-3.9372,-3.9399,-3.9406,-3.9452,-3.9476,-3.944,-3.9468,-3.9487,-3.953,-3.9572,-3.9605,-3.9683,-3.9673,-3.971,-3.9691,-3.9778,-3.9696,-3.9706,-3.9694,-3.9692,-3.9697,-3.9795,-3.9798,-3.98,-3.9802,0,-3.952,-3.9506,-3.9542,-3.9575,-3.9605,-3.963,-3.965,-3.9676,-3.964,-3.9674,-3.9721,-3.9746,-3.9796,-3.9839,-3.9871,-3.9875,-3.9834,-3.9828,-3.9848,-3.9861,-3.9869,-3.9867,-3.9598,-3.9823,-3.9821,-3.9819,-3.9818,-3.9817,-3.9674,-3.9721,-3.9731,-3.9773,-3.9784,-3.9804,-3.9847,-3.9839,-3.9877,-3.9915,-3.9891,-3.9948,-3.9959,-3.9998,-4.0008,-4.0052,-4.0017,-4.0045,-4.0052,-4.006,-4.0071,-3.9861,-4.0057,-4.0056,-4.0056,-4.0055,-4.0055,0,-3.9879,-3.9883,-3.9922,-3.9952,-3.9986,-3.9942,-3.9962,-3.9994,-4.0043,-4.0058,-4.009,-4.0145,-4.0187,-4.018,-4.0218,-4.0254,-4.0236,-4.0266,-4.0263,-4.0265,-4.0099,-4.0079,-4.028,-4.028,-4.028,-4.028,-4.0279,-4.0279,-3.9991,-4.0068,-4.0055,-4.0137,-4.014,-4.0194,-4.0209,-4.0228,-4.0239,-4.0302,-4.0336,-4.0331,-4.0338,-4.0376,-4.0412,-4.0409,-4.0426,-4.0463,-4.0454,-4.0299,-4.0277,-4.0256,-4.0237,-4.0467,-4.0467,-4.0616,-4.0617,-4.0618]},{"header":{"parameterUnit":"m.s-1","parameterCategory":1,"la1":30.2991,"la2":30.254,"lo1":-89.0895,"lo2":-89.0444,"dy":0.0017,"dx":0.0017,"nx":28,"ny":28,"refTime":"2024-02-28T09:00:00:Z","depth":0,"parameterNumber":3,"parameterNumberName":"V-component_of_WINDS"},"data":[0,0,0,0,0,0,0,0,0,0,0,0,0,0,0,0,0,0,0,0,0,0,0,0,0,0,0,0,0,0,0,0,0,0,0,0,0,0,0,0,0,0,0,0,0,0,0,0,0,0,0,0,0,0,0,0,0,0,-4.3896,-4.3896,0,-4.3914,-4.3914,-4.3915,-4.3883,-4.3882,-4.3881,-4.388,-4.3896,-4.3897,-4.3899,0,0,0,0,0,0,0,0,0,0,0,0,0,-4.3832,-4.3833,-4.3896,-4.3897,-4.3897,-4.3914,-4.3914,-4.3915,-4.3883,-4.3882,-4.3881,-4.3879,-4.3896,-4.3897,-4.3899,0,0,0,0,0,0,0,0,0,0,0,0,0,-4.3856,-4.3834,-4.3896,-4.3883,-4.3882,-4.3914,-4.3914,-4.3915,-4.3883,-4.3882,-4.388,-4.3879,-4.3895,-4.3897,-4.3899,-4.3944,0,0,-4.3906,-4.3907,0,0,0,0,0,0,0,0,-4.3855,-4.3858,-4.3885,-4.3884,-4.3883,-4.3895,-4.3898,-4.3924,-4.3884,-4.3883,-4.388,-4.3878,-4.3897,-4.3899,-4.3905,-4.3945,-4.3946,-4.3906,-4.3907,-4.3908,-4.3909,0,0,0,0,0,0,0,-4.3853,-4.3857,-4.3903,-4.3885,-4.3884,-4.3876,-4.3877,-4.3903,-4.3898,-4.3883,-4.3881,-4.3883,-4.3896,-4.3903,-4.3906,-4.3946,-4.3906,-4.3908,-4.3909,-4.391,-4.4022,-4.4023,0,0,0,0,0,0,-4.3853,-4.3856,-4.3903,-4.3904,-4.3865,-4.3878,-4.388,-4.3893,-4.3898,-4.3897,-4.3885,-4.3882,-4.3901,-4.3903,-4.3906,-4.3958,-4.3908,-4.391,-4.3911,-4.402,-4.4022,-4.4024,0,0,0,0,0,0,-4.3852,-4.3858,-4.3902,-4.3879,-4.3884,-4.3881,-4.3895,-4.3894,-4.3901,-4.3899,-4.3898,-4.3893,-4.3899,-4.3903,-4.3935,-4.3958,-4.3911,-4.3913,-4.4018,-4.402,-4.4023,-4.4062,0,0,0,0,0,0,-4.385,-4.3858,-4.3875,-4.388,-4.3886,-4.3931,-4.3897,-4.3895,-4.3905,-4.3902,-4.3907,-4.3907,-4.3899,-4.3932,-4.3937,-4.396,-4.3915,-4.4016,-4.4019,-4.4022,-4.4059,-4.4066,-4.4072,0,0,0,0,0,-4.3848,-4.3885,-4.3876,-4.3882,-4.3908,-4.3933,-4.3936,-4.3926,-4.3907,-4.3924,-4.3923,-4.3906,-4.3955,-4.3935,-4.3941,-4.3965,-4.4014,-4.4018,-4.4022,-4.4056,-4.4065,-4.4072,0,0,0,0,0,0,-4.3883,-4.3886,-4.3876,-4.3916,-4.3924,-4.3927,-4.3949,-4.3936,-4.3949,-4.3945,-4.3932,-4.3934,-4.3968,-4.397,-4.3948,-4.4008,-4.3981,-4.3986,-4.4005,-4.4014,-4.402,-4.4018,-4.3916,0,0,0,0,0,-4.3895,-4.3916,-4.3917,-4.3952,-4.3957,-4.3952,-4.3963,-4.3955,-4.3963,-4.3966,-4.3967,-4.3975,-4.3991,-4.4003,-4.4018,-4.406,-4.406,-4.4079,-4.4085,-4.4091,-4.4095,-4.4116,-4.4124,-4.4036,-4.4036,-4.4036,0,0,-4.392,-4.3925,-4.3939,-4.3959,-4.3965,-4.3986,-4.3955,-4.3979,-4.3994,-4.3969,-4.3999,-4.4,-4.4008,-4.4044,-4.406,-4.4047,-4.4119,-4.4096,-4.41,-4.4101,-4.412,-4.4129,-4.4136,-4.4039,-4.4038,-4.4038,0,0,-4.3977,-4.3983,-4.4013,-4.4019,-4.4028,-4.4025,-4.4032,-4.4037,-4.4037,-4.4067,-4.4048,-4.4066,-4.4095,-4.4101,-4.4108,-4.4167,-4.4152,-4.4173,-4.4206,-4.4226,-4.4233,-4.4239,-4.4259,-4.4266,-4.4177,-4.4177,-4.4177,0,-4.4007,-4.4039,-4.4029,-4.4054,-4.4063,-4.4042,-4.4071,-4.4078,-4.4091,-4.4098,-4.4083,-4.4119,-4.4123,-4.416,-4.4174,-4.4181,-4.4187,-4.4171,-4.4233,-4.4239,-4.4245,-4.4263,-4.4271,-4.4179,-4.4179,-4.4179,-4.4179,0,-4.4075,-4.4097,-4.4119,-4.4133,-4.4145,-4.4172,-4.4165,-4.4178,-4.4169,-4.4167,-4.4197,-4.4201,-4.4217,-4.4225,-4.4217,-4.4261,-4.4252,-4.4235,-4.4208,-4.4255,-4.4273,-4.428,-4.4183,-4.4182,-4.4181,-4.4181,0,0,-4.4153,-4.4161,-4.417,-4.4175,-4.4184,-4.42,-4.4226,-4.4241,-4.4252,-4.4262,-4.4282,-4.4308,-4.4292,-4.43,-4.4292,-4.431,-4.4355,-4.4291,-4.4291,-4.4302,-4.4402,-4.4414,-4.4422,-4.4346,-4.4347,-4.4348,-4.4401,0,-4.4208,-4.4252,-4.4244,-4.4287,-4.4306,-4.4287,-4.4309,-4.4316,-4.4315,-4.4331,-4.4329,-4.4347,-4.4326,-4.433,-4.4348,-4.4346,-4.4375,-4.4342,-4.4363,-4.4364,-4.436,-4.4431,-4.4444,-4.4494,-4.4408,-4.4409,-4.441,0,-4.4278,-4.4291,-4.4336,-4.4341,-4.4349,-4.4369,-4.4382,-4.4398,-4.4405,-4.4403,-4.4412,-4.44,-4.4424,-4.4398,-4.443,-4.4408,-4.4416,-4.4417,-4.4418,-4.4419,-4.4389,-4.4432,-4.451,-4.4517,-4.4421,-4.442,-4.4419,0,-4.4329,-4.4358,-4.4388,-4.4394,-4.44,-4.4415,-4.4418,-4.4424,-4.4434,-4.4445,-4.4451,-4.4465,-4.4473,-4.4484,-4.4476,-4.4458,-4.4509,-4.4482,-4.4507,-4.4507,-4.4518,-4.4517,-4.4596,-4.4525,-4.4525,-4.4525,-4.4525,0,-4.4391,-4.4419,-4.4411,-4.4429,-4.4459,-4.445,-4.448,-4.4481,-4.4486,-4.4504,-4.4488,-4.4505,-4.4495,-4.451,-4.4504,-4.4531,-4.4535,-4.4533,-4.4531,-4.4534,-4.4534,-4.4538,-4.4533,-4.4527,-4.4527,-4.4526,-4.4526,0,-4.4452,-4.4448,-4.448,-4.4484,-4.4485,-4.4507,-4.451,-4.4527,-4.4524,-4.4547,-4.4551,-4.4548,-4.4565,-4.4559,-4.4578,-4.4574,-4.4608,-4.4602,-4.4605,-4.4603,-4.4628,-4.4625,-4.4711,-4.4721,-4.4645,-4.4646,-4.4647,0,-4.4491,-4.4512,-4.4518,-4.4529,-4.4534,-4.4552,-4.4561,-4.4553,-4.4564,-4.4573,-4.4589,-4.4605,-4.4617,-4.4646,-4.4645,-4.4659,-4.4652,-4.4681,-4.4654,-4.4656,-4.465,-4.4649,-4.465,-4.4686,-4.4687,-4.4688,-4.4688,0,-4.456,-4.4557,-4.4572,-4.4587,-4.4599,-4.461,-4.4619,-4.4629,-4.4621,-4.4634,-4.4652,-4.4661,-4.4681,-4.4696,-4.4709,-4.4711,-4.4698,-4.4697,-4.4703,-4.4705,-4.4706,-4.4704,-4.4619,-4.4695,-4.4694,-4.4694,-4.4693,-4.4693,-4.461,-4.4627,-4.4634,-4.4652,-4.4658,-4.4667,-4.4683,-4.4683,-4.4698,-4.4713,-4.4707,-4.4727,-4.4733,-4.4749,-4.4753,-4.4768,-4.4757,-4.4766,-4.4768,-4.477,-4.4773,-4.4705,-4.4771,-4.4771,-4.477,-4.477,-4.477,0,-4.4677,-4.4681,-4.4697,-4.471,-4.4724,-4.4711,-4.4721,-4.4733,-4.4751,-4.4758,-4.4771,-4.4791,-4.4806,-4.4806,-4.482,-4.4832,-4.4826,-4.4836,-4.4834,-4.4835,-4.4783,-4.4775,-4.4841,-4.4841,-4.4841,-4.4841,-4.4841,-4.4841,-4.4713,-4.4742,-4.4739,-4.477,-4.4773,-4.4794,-4.48,-4.4808,-4.4813,-4.4837,-4.485,-4.485,-4.4854,-4.4868,-4.4881,-4.4881,-4.4886,-4.4898,-4.4895,-4.4846,-4.4839,-4.4832,-4.4825,-4.4899,-4.4899,-4.4945,-4.4945,-4.4946]}]]